Location: Newark
(39.6867°N, 100.6772°W)
Time: 16:38:13
(UTC+00:00)

Transit 2A - Pass Details

Date: 24 October 2019
Orbit: 601 x 957 km, 66.7° (Epoch: 14 November)

Event Time Altitude Azimuth Distance (km) Brightness Sun altitude
Rises 01:16:21 0° 217° (SW) 3,382 9.9 -16.8°
Reaches altitude 10° 01:18:57 10° 221° (SW) 2,395 9.1 -17.3°
Maximum altitude 01:24:21 60° 301° (WNW) 861 6.5 -18.4°
Drops below altitude 10° 01:29:15 10° 22° (NNE) 2,173 8.1 -19.3°
Enters shadow 01:29:46 - 23° (NNE) 2,369 8.3 -19.4°
